This demonstration page uses our WeatherBlox Daily Observations layout. Learn more.

Left ArrowRight Arrow

Hourly Observations for January 13, 2015

Temp ( °F °C ) Dew Point ( °F °C ) Humidity (%) Winds ( mph kmh ) Pressure ( in mb ) Visibility ( mi km ) Precip ( " mm )
12:15 am 00:15 Cloudy 21 -6 7 -14 54 54 NE 16 26 30.59 1036 10 16.0934 N/A
12:35 am 00:35 Partly Cloudy 21 -6 7 -14 54 54 NE 14 22 30.59 1036 10 16.0934 N/A
12:55 am 00:55 Clear 19 -7 7 -14 58 58 NE 10 17 30.59 1036 10 16.0934 N/A
1:15 am 01:15 Clear 19 -7 7 -14 58 58 NE 10 17 30.62 1037 10 16.0934 N/A
1:35 am 01:35 Clear 19 -7 7 -14 58 58 NE 10 17 30.62 1037 10 16.0934 N/A
1:55 am 01:55 Clear 18 -8 7 -14 62 62 NE 13 20 30.62 1037 10 16.0934 N/A
2:15 am 02:15 Clear 18 -8 7 -14 62 62 NNE 8 13 30.62 1037 10 16.0934 N/A
2:36 am 02:36 Clear 16 -9 7 -14 67 67 N 10 17 30.65 1038 10 16.0934 N/A
2:55 am 02:55 Clear 16 -9 7 -14 67 67 NNE 8 13 30.65 1038 10 16.0934 N/A
3:15 am 03:15 Clear 14 -10 5 -15 67 67 NNE 8 13 30.68 1039 10 16.0934 N/A
3:35 am 03:35 Clear 14 -10 5 -15 67 67 NNE 8 13 30.68 1039 10 16.0934 N/A
3:55 am 03:55 Clear 16 -9 5 -15 62 62 NE 10 17 30.68 1039 10 16.0934 N/A
4:15 am 04:15 Clear 16 -9 5 -15 62 62 NE 10 17 30.68 1039 10 16.0934 N/A
4:35 am 04:35 Clear 14 -10 3 -16 62 62 NE 9 15 30.68 1039 10 16.0934 N/A
4:55 am 04:55 Partly Cloudy 14 -10 5 -15 67 67 NNE 10 17 30.68 1039 10 16.0934 N/A
5:16 am 05:16 Partly Cloudy 14 -10 3 -16 62 62 NE 12 19 30.68 1039 10 16.0934 N/A
5:35 am 05:35 Partly Cloudy 14 -10 3 -16 62 62 NE 12 19 30.68 1039 10 16.0934 N/A
5:55 am 05:55 Cloudy 14 -10 5 -15 67 67 NE 12 19 30.68 1039 10 16.0934 N/A
6:15 am 06:15 Cloudy 14 -10 5 -15 67 67 NE 13 20 30.71 1040 10 16.0934 N/A
6:35 am 06:35 Mostly Cloudy 14 -10 5 -15 67 67 NE 12 19 30.71 1040 10 16.0934 N/A
6:55 am 06:55 Mostly Cloudy 16 -9 5 -15 62 62 NE 12 19 30.71 1040 10 16.0934 N/A
7:15 am 07:15 Mostly Cloudy 16 -9 7 -14 67 67 ENE 13 20 30.71 1040 10 16.0934 N/A
7:35 am 07:35 Mostly Cloudy 16 -9 7 -14 67 67 NE 14 22 30.71 1040 10 16.0934 N/A
7:55 am 07:55 Mostly Cloudy 16 -9 7 -14 67 67 ENE 13 20 30.71 1040 7 11.26538 N/A
8:15 am 08:15 Cloudy 16 -9 5 -15 62 62 NE 14 22 30.71 1040 7 11.26538 N/A
8:35 am 08:35 Cloudy 16 -9 7 -14 67 67 NE 13 20 30.71 1040 7 11.26538 N/A
8:55 am 08:55 Cloudy 16 -9 5 -15 62 62 NE 13 20 30.71 1040 5 8.0467 N/A
9:15 am 09:15 Mostly Cloudy 16 -9 5 -15 62 62 NE 12 19 30.71 1040 10 16.0934 N/A
9:36 am 09:36 Sunny 16 -9 5 -15 62 62 ENE 9 15 30.71 1040 10 16.0934 N/A
9:55 am 09:55 Sunny 16 -9 5 -15 62 62 ENE 12 19 30.71 1040 10 16.0934 N/A
10:15 am 10:15 Sunny 18 -8 7 -14 62 62 ENE 12 19 30.71 1040 10 16.0934 N/A
10:35 am 10:35 Sunny 18 -8 7 -14 62 62 ENE 13 20 30.71 1040 10 16.0934 N/A
10:55 am 10:55 Sunny 19 -7 7 -14 58 58 ENE 10 17 30.68 1039 10 16.0934 N/A
11:15 am 11:15 Sunny 19 -7 7 -14 58 58 ENE 14 22 30.68 1039 10 16.0934 N/A
11:35 am 11:35 Sunny 19 -7 7 -14 58 58 ENE 14 22 30.68 1039 10 16.0934 N/A
11:55 am 11:55 Sunny 19 -7 7 -14 58 58 ENE 14 22 30.65 1038 10 16.0934 N/A
12:16 pm 12:16 Sunny 19 -7 7 -14 58 58 ENE 16 26 30.65 1038 10 16.0934 N/A
12:35 pm 12:35 Partly Cloudy 21 -6 7 -14 54 54 NE 12 19 30.65 1038 10 16.0934 N/A
12:56 pm 12:56 Sunny 21 -6 5 -15 49 49 ENE 15 24 30.62 1037 10 16.0934 N/A
1:15 pm 13:15 Sunny 21 -6 7 -14 54 54 NE 12 19 30.62 1037 10 16.0934 N/A
1:35 pm 13:35 Sunny 21 -6 7 -14 54 54 ENE 9 15 30.62 1037 10 16.0934 N/A
1:55 pm 13:55 Sunny 21 -6 7 -14 54 54 NE 8 13 30.59 1036 10 16.0934 N/A
2:15 pm 14:15 Sunny 21 -6 7 -14 54 54 NE 15 24 30.59 1036 10 16.0934 N/A
2:35 pm 14:35 Sunny 21 -6 5 -15 49 49 NE 14 22 30.59 1036 10 16.0934 N/A
2:55 pm 14:55 Sunny 19 -7 5 -15 53 53 NE 12 19 30.59 1036 10 16.0934 N/A
3:15 pm 15:15 Sunny 21 -6 5 -15 49 49 NE 12 19 30.56 1035 10 16.0934 N/A
3:36 pm 15:36 Sunny 19 -7 3 -16 49 49 NE 10 17 30.56 1035 10 16.0934 N/A
3:55 pm 15:55 Sunny 19 -7 3 -16 49 49 NE 12 19 30.56 1035 10 16.0934 N/A
4:15 pm 16:15 Sunny 19 -7 3 -16 49 49 NE 10 17 30.56 1035 10 16.0934 N/A
4:35 pm 16:35 Sunny 19 -7 3 -16 49 49 NNE 12 19 30.56 1035 10 16.0934 N/A
4:55 pm 16:55 Sunny 18 -8 3 -16 53 53 NE 10 17 30.56 1035 10 16.0934 N/A
5:15 pm 17:15 Sunny 18 -8 1 -17 49 49 NE 12 19 30.56 1035 10 16.0934 N/A
5:35 pm 17:35 Sunny 16 -9 1 -17 53 53 NE 13 20 30.59 1036 10 16.0934 N/A
5:55 pm 17:55 Clear 14 -10 3 -16 62 62 NNE 10 17 30.59 1036 10 16.0934 N/A
6:16 pm 18:16 Clear 14 -10 1 -17 57 57 NE 9 15 30.59 1036 10 16.0934 N/A
6:35 pm 18:35 Clear 12 -11 1 -17 62 62 NNE 13 20 30.59 1036 10 16.0934 N/A
6:55 pm 18:55 Clear 12 -11 1 -17 62 62 NE 10 17 30.59 1036 10 16.0934 N/A
7:15 pm 19:15 Clear 12 -11 1 -17 62 62 NE 13 20 30.59 1036 10 16.0934 N/A
7:35 pm 19:35 Clear 12 -11 1 -17 62 62 NE 10 17 30.59 1036 10 16.0934 N/A
7:55 pm 19:55 Clear 10 -12 1 -17 67 67 NE 9 15 30.59 1036 10 16.0934 N/A
8:15 pm 20:15 Clear 10 -12 1 -17 67 67 NE 9 15 30.59 1036 10 16.0934 N/A
8:35 pm 20:35 Clear 10 -12 1 -17 67 67 NE 8 13 30.56 1035 10 16.0934 N/A
8:55 pm 20:55 Clear 9 -13 1 -17 72 72 NE 7 11 30.56 1035 10 16.0934 N/A
9:15 pm 21:15 Clear 9 -13 0 -18 66 66 NE 7 11 30.56 1035 10 16.0934 N/A
9:35 pm 21:35 Clear 9 -13 0 -18 66 66 NE 7 11 30.53 1034 10 16.0934 N/A
9:55 pm 21:55 Clear 9 -13 0 -18 66 66 NE 5 7 30.53 1034 10 16.0934 N/A
10:15 pm 22:15 Clear 7 -14 0 -18 72 72 NE 5 7 30.53 1034 10 16.0934 N/A
10:35 pm 22:35 Clear 7 -14 0 -18 72 72 NE 5 7 30.53 1034 10 16.0934 N/A
10:55 pm 22:55 Clear 7 -14 0 -18 72 72 NE 5 7 30.53 1034 10 16.0934 N/A
11:16 pm 23:16 Clear 7 -14 0 -18 72 72 N 5 7 30.53 1034 10 16.0934 N/A
11:35 pm 23:35 Clear 7 -14 0 -18 72 72 NNE 3 6 30.5 1033 10 16.0934 N/A
11:55 pm 23:55 Clear 5 -15 -2 -19 72 72 N 3 6 30.5 1033 10 16.0934 N/A

Powered by AerisWeather